CZ-4B R/B (27432 NORAD) Tracking and Keplerian Element Data

This shows tracking and keplerian element data for the satellite.

Feedback or suggestion? Click here.




ElementValue
Catalog27432
NameCZ-4B R/B
Epoch Orbit1524
Epoch Day15.79384574
Epoch Year2022
RAAN38.6346
Inclination99.0752
Eccentricity0.0050197
Argument of Perigee348.7794
Mean Anonmoly184.8162
Mean Motion14.14122202
Decay Rate-1E-08
L11 27432U 02024C 22015.79384574 -.00000001 00000+0 23256-4 0 9996
L22 27432 99.0752 38.6346 0050197 348.7794 184.8162 14.14122202 15247

Live tracking and technical data element details for CZ-4B R/B (NORAD 27432). CZ-4B R/B can be tracked NOW for your location showing map with azimuth and elevation plus other details from your city location.

Track the satellite on the map from your city or location and see movement details for azimuth, elevation, latitude, longitude, range, height, and movement on the map or in text.







IsCatalogInMostPopularTable: catalog: 27432, numindb: 446
Update: records affected: 1



GetName: 27432 CZ-4B R/B

Hit Count: updated at: Mon, 17 Jan 2022 00:24:02 GMT